TimePDT,TemperatureF,Dew PointF,Humidity,Sea Level PressureIn,VisibilityMPH,Wind Direction,Wind SpeedMPH,Gust SpeedMPH,PrecipitationIn,Events,Conditions,WindDirDegrees,DateUTC
12:53 AM,68.0,48.9,50,29.78,10.0,East,6.9,-,N/A,,Clear,100,2013-07-07 07:53:00
1:53 AM,66.0,48.9,54,29.79,10.0,East,5.8,-,N/A,,Clear,90,2013-07-07 08:53:00
2:53 AM,66.0,48.0,52,29.79,10.0,East,4.6,-,N/A,,Clear,100,2013-07-07 09:53:00
3:53 AM,64.0,48.0,56,29.80,10.0,East,4.6,-,N/A,,Clear,100,2013-07-07 10:53:00
4:53 AM,61.0,48.0,62,29.81,10.0,East,3.5,-,N/A,,Clear,100,2013-07-07 11:53:00
5:53 AM,64.0,48.0,56,29.83,10.0,SE,4.6,-,N/A,,Clear,140,2013-07-07 12:53:00
6:53 AM,69.1,48.0,47,29.85,10.0,South,6.9,-,N/A,,Clear,190,2013-07-07 13:53:00
7:53 AM,72.0,52.0,49,29.85,10.0,South,11.5,-,N/A,,Clear,180,2013-07-07 14:53:00
8:53 AM,73.9,52.0,46,29.86,10.0,SW,8.1,-,N/A,,Clear,220,2013-07-07 15:53:00
9:53 AM,77.0,51.1,40,29.85,10.0,South,4.6,-,N/A,,Clear,180,2013-07-07 16:53:00
10:53 AM,79.0,50.0,36,29.84,10.0,Calm,Calm,-,N/A,,Clear,0,2013-07-07 17:53:00
11:53 AM,82.9,50.0,32,29.82,10.0,SW,8.1,-,N/A,,Clear,220,2013-07-07 18:53:00
12:53 PM,84.9,48.9,29,29.81,10.0,SW,5.8,-,N/A,,Clear,220,2013-07-07 19:53:00
1:53 PM,89.1,46.9,23,29.78,10.0,SW,6.9,-,N/A,,Clear,220,2013-07-07 20:53:00
2:53 PM,91.0,46.9,22,29.77,10.0,South,8.1,-,N/A,,Clear,190,2013-07-07 21:53:00
3:53 PM,91.0,46.0,21,29.75,10.0,West,9.2,-,N/A,,Clear,270,2013-07-07 22:53:00
4:53 PM,90.0,42.1,19,29.74,10.0,South,5.8,-,N/A,,Clear,190,2013-07-07 23:53:00
5:53 PM,91.0,37.9,15,29.72,10.0,Variable,4.6,-,N/A,,Clear,0,2013-07-08 00:53:00
6:53 PM,91.0,41.0,17,29.72,10.0,Calm,Calm,-,N/A,,Clear,0,2013-07-08 01:53:00
7:53 PM,89.1,37.0,16,29.73,10.0,WSW,6.9,-,N/A,,Clear,240,2013-07-08 02:53:00
8:53 PM,82.9,35.1,18,29.74,10.0,West,3.5,-,N/A,,Clear,260,2013-07-08 03:53:00
9:53 PM,73.9,46.9,38,29.76,10.0,ESE,6.9,-,N/A,,Clear,110,2013-07-08 04:53:00
10:53 PM,73.0,46.9,39,29.77,10.0,ESE,6.9,-,N/A,,Clear,110,2013-07-08 05:53:00
11:53 PM,72.0,46.9,41,29.77,10.0,ESE,6.9,-,N/A,,Clear,120,2013-07-08 06:53:00